Regional Weather Roundup
Issued by NWS Mt. Holly, NJ

Home | Current Version | Previous Version | Text Only | Print | Product List | Glossary On
Versions: 1 2 3 4 5 6 7 8 9 10 11 12 13 14 15 16 17 18 19 20 21 22 23 24 25 26 27
000
ASUS41 KPHI 272012
RWRPHI

REGIONAL WEATHER ROUNDUP
NATIONAL WEATHER SERVICE MOUNT HOLLY NJ
400 PM EDT TUE SEP 27 2016

NOTE:  "FAIR" INDICATES FEW OR NO CLOUDS BELOW 12,000 FEET WITH NO
SIGNIFICANT WEATHER AND/OR OBSTRUCTIONS TO VISIBILITY.

 * = STATION DOES NOT REPORT PRECIPITATION (E.G. RAIN, SNOW, ETC.)
        OR FOG.

NJZ015>026-272100-
SOUTHERN NEW JERSEY

CITY           SKY/WX    TMP DP  RH WIND       PRES   REMARKS
POMONA         CLOUDY    67  61  81 S5        29.91F
WILDWOOD*        N/A     67  61  81 CALM      29.92F
MILLVILLE      CLOUDY    69  63  81 S3        29.91F
WRIGHTSTOWN    MOSUNNY   74  57  54 VRB2      29.86F
MOUNT HOLLY    MOSUNNY   73  53  49 SW6       29.89F
TRENTON        MOSUNNY   74  48  39 VRB6      29.89F

$$
NJZ001>014-272100-
NORTHERN NEW JERSEY

CITY           SKY/WX    TMP DP  RH WIND       PRES   REMARKS
SUSSEX         MOSUNNY   72  52  49 VRB3      29.89F
ANDOVER*         N/A     72  48  42 S5        29.89F
MORRISTOWN     PTSUNNY   72  52  49 SW9       29.89F
NEWARK         PTSUNNY   75  51  43 SW7       29.88F
TETERBORO      MOSUNNY   76  49  38 W6        29.86F
CALDWELL       CLOUDY    74  52  46 NW6       29.88F
SOMERVILLE     SUNNY     74  52  46 VRB5      29.87F
ALLAIRE*       CLOUDY    72  59  63 VRB6      29.90F
TOMS RIVER*    CLOUDY    73  61  65 S5        29.90F

$$
PAZ043-044-047-054-055-060>062-066>071-272100-
EASTERN PENNSYLVANIA

CITY           SKY/WX    TMP DP  RH WIND       PRES   REMARKS
PHILADELPHIA   PTSUNNY   74  49  41 SW7       29.90F
NORTH PHILA    MOSUNNY   77  49  37 SW7       29.91F
BLUE BELL*     SUNNY     73  46  38 W8        29.88F
DOYLESTOWN     SUNNY     76  48  37 W6        29.89F
QUAKERTOWN*    SUNNY     73  45  35 SW6       29.90F
PERKASIE*      FAIR      72  48  43 CALM      29.91S
POTTSTOWN      SUNNY     74  47  38 CALM      29.91F
LANCASTER      SUNNY     75  46  35 W9        29.89F
COATESVILLE    SUNNY     72  46  40 CALM      29.91F
READING        SUNNY     74  45  35 SW9       29.88F
ALLENTOWN      SUNNY     74  46  36 SW7       29.89F
MOUNT POCONO   MOSUNNY   64  48  56 SW10      29.92S
HAZLETON       SUNNY     68  45  42 S7        29.93F
LEHIGHTON        N/A     72  46  40 SW3       29.90F
WILKES BARRE   SUNNY     72  44  36 SW9       29.88F

$$
DEZALL-MDZ008-012-015-019-020-272100-
DELAWARE AND EASTERN MARYLAND

CITY           SKY/WX    TMP DP  RH WIND       PRES   REMARKS
WILMINGTON     MOSUNNY   74  50  42 SW6       29.90F
DOVER          CLOUDY    69  67  93 VRB2      29.89F
GEORGETOWN     CLOUDY    69  61  75 CALM      29.92F
EASTON         MOSUNNY   73  63  68 S5        29.94F
ABERDEEN       MOSUNNY   73  55  53 SW7       29.89F
PATUXENT       CLOUDY    69  61  75 E5        29.91F
OCEAN CITY     CLOUDY    71  66  84 E6        29.92F
WALLOPS ISLAND PTSUNNY   72  69  90 NE6       29.91F
CAMBRIDGE      PTSUNNY   70  61  73 CALM      29.90F
SALISBURY      CLOUDY    69  66  90 E6        29.91F

$$
PAZ001-021-NYZ056-072-MDZ011-DCZ001-272100-
OTHER NEARBY LOCATIONS

CITY           SKY/WX    TMP DP  RH WIND       PRES   REMARKS
HARRISBURG     MOSUNNY   76  46  34 CALM      29.87F
STATE COLLEGE  MOSUNNY   70  41  35 SW9G18    29.89F
WILLIAMSPORT   MOSUNNY   73  48  41 VRB6      29.85F
BINGHAMTON     MOSUNNY   66  40  38 SW12      29.87F
NEW YORK CITY  MOSUNNY   72  55  55 S3        29.90F
BALTIMORE      MOSUNNY   74  54  49 S5        29.89F
WASHINGTON DC  MOSUNNY   76  57  51 S8        29.90F

$$




USA.gov is the U.S. government's official web portal to all federal, state and local government web resources and services.